NOAA 16 DEB, 41277

Orbit data source: Space-Track

NOAA 16 DEB, 41277 is space debris in SSO originally from a launch on Thu, 21 Sep 2000 UTC launched from the Air Force Western Test Range (AFWTR). Debris objects in space refer to the collection of defunct objects orbiting the Earth. Examples of debris include non-operational satellites, rocket bodies, and fragments generated from explosions, collisions, or faulty payload assembly.

Loading next visibility...
Identifier
41277, 2000-055GD
Orbit
SSO
Country
Flag of USUS
Related business
Manufacturer
Unknown
Mission
Spacecraft
Bus & Motor
Unknown
Mass
Unknown
Launch date (UTC)
2000-09-21 (25 years ago)
Launch vehicle
Unknown
Launch site
Air Force Western Test Range (AFWTR)
Object type
Payload
Rocket body
Debris
Shape & HBR
Unknown shape, 0.1 m
Radar Cross Section
Small (<0.1 m²)

Expand to show TLE details & history
Last TLE update: 13 hours ago

TLE from 13 hours ago
0 NOAA 16 DEB
1 41277U 00055GD  25292.72290869  .00015740  00000-0  41361-2 0  9998
2 41277  98.9873 121.3280 0032626 126.9111 233.5077 14.48892710511608
Epoch: 2025-10-19T17:20Z
TLE epoch observation values (Epoch: 2025-10-19T17:20:59.310Z)
Latitude
-0.00009°
Longitude
-167.3546°
Altitude
746.054 km
Speed
7.474 km/s
True Right ascension
08h 05m 18s
True Declination
0° 00' 00"
Sunlit
Object was in daylight at epoch
Visualization orbit readout
Latitude
Unknown
Longitude
Unknown
Altitude
Unknown
Speed
Unknown
Apparent Right ascension
Unknown
Apparent Declination
Unknown
Sunlit
N/A
Visualization observer readout
Local Sidereal Time
01:14:06
Azimuth
Unknown
Elevation
Unknown
Doppler factor
Unknown
Orbital elements
Apogee altitude
749.58 km
Perigee altitude
703.222 km
Semi-major axis
7,104.538 km
Eccentricity
0.00326
Inclination
98.9873°
RAAN
121.328°
Arg. of periapsis
126.9111°
True anomaly
233.20786°
Mean anomaly
233.5077°
Eccentric anomaly
233.35771°
Mean motion
3.62443 °/min
Orbital period
99.33 mins
BSTAR
0.0041361
Loading maneuver chart data...
Computing Atmospheric mass density...

Documentation

Showing up to 5 results
|